Date String (YYYY-MM-DD hh:mm:ss) UTC,Instrument flags,Ambient pressure (hPa),Sample flow (lpm),Bypass flow (lpm),Sample temperature (°C),Ambient temperature (°C),ASC tube jacket temperature (°C),LED temperature (°C),Box temperature (°C),Sample RH (%),Span deviation,Mass concentration (μg/m³),Mass concentration (μg/m³),Mass concentration (μg/m³)
DateTimeUTC,F1_M11,P_M11,Q1_M11,Q2_M11,T1_M11,T2_M11,T3_M11,T4_M11,T5_M11,U1_M11,ZSPAN_M11,X0_M11,X2_M11,X1_M11
2023-04-23 04:00:00,,0832.2,5.00,0.00,21.9,20.3,00.0,30.4,23.5,16.3,0001.8,0008.55,0005.40,0004.97
2023-04-23 04:01:00,,0832.2,5.00,0.00,21.9,20.3,00.0,30.4,23.5,16.3,0001.2,0008.44,0005.34,0004.93
2023-04-23 04:02:00,,0832.2,5.00,0.00,21.9,20.3,00.0,30.4,23.5,16.2,0000.3,0008.35,0005.27,0004.88
2023-04-23 04:03:00,,0832.1,4.99,0.00,21.9,20.3,00.0,30.4,23.4,16.3,0000.4,0008.25,0005.23,0004.86
2023-04-23 04:04:00,,0832.2,5.00,0.00,21.9,20.3,00.0,30.4,23.4,16.4,0000.6,0008.36,0005.28,0004.88
2023-04-23 04:05:00,,0832.2,5.01,0.00,21.9,20.6,00.0,30.3,23.6,16.4,0000.5,0008.34,0005.31,0004.92
2023-04-23 04:06:00,,0832.2,5.00,0.00,22.0,21.6,00.0,30.3,24.0,16.2,0000.1,0008.42,0005.37,0004.96
2023-04-23 04:07:00,,0832.2,4.99,0.00,22.2,22.7,00.0,30.3,24.3,15.9,0000.2,0008.39,0005.38,0004.96
2023-04-23 04:08:00,,0832.2,5.00,0.00,22.3,22.9,00.0,30.4,24.3,15.6,0000.4,0008.39,0005.38,0004.95
2023-04-23 04:09:00,,0832.2,4.99,0.00,22.3,22.6,00.0,30.4,24.2,15.4,0000.5,0008.38,0005.30,0004.88
2023-04-23 04:10:00,,0832.2,5.00,0.00,22.4,22.3,00.0,30.5,24.1,15.2,0000.2,0008.53,0005.16,0004.76
2023-04-23 04:11:00,,0832.2,5.01,0.00,22.4,22.0,00.0,30.5,24.0,15.1,0000.0,0008.12,0005.02,0004.63
2023-04-23 04:12:00,,0832.1,5.01,0.00,22.4,21.8,00.0,30.6,24.0,15.0,0000.0,0007.93,0004.86,0004.48
2023-04-23 04:13:00,,0832.1,5.00,0.00,22.3,21.5,00.0,30.6,23.9,14.9,0000.0,0007.77,0004.74,0004.37
2023-04-23 04:14:00,,0832.0,5.00,0.00,22.3,21.3,00.0,30.6,23.9,14.9,0000.0,0007.61,0004.60,0004.26
2023-04-23 04:15:00,,0832.0,5.00,0.00,22.3,21.1,00.0,30.6,23.8,14.9,0000.0,0007.31,0004.40,0004.10
2023-04-23 04:16:00,,0832.1,5.00,0.00,22.3,21.0,00.0,30.6,23.8,14.9,0000.0,0006.91,0004.19,0003.91
2023-04-23 04:17:00,,0832.1,5.00,0.00,22.2,20.9,00.0,30.6,23.8,14.9,0000.0,0006.52,0003.99,0003.73
2023-04-23 04:18:00,,0832.0,5.00,0.00,22.2,20.9,00.0,30.6,23.8,14.9,0000.0,0006.17,0003.82,0003.59
2023-04-23 04:19:00,,0832.0,5.00,0.00,22.2,20.8,00.0,30.6,23.8,14.9,0000.0,0005.79,0003.67,0003.46
2023-04-23 04:20:00,,0832.1,5.00,0.00,22.2,20.8,00.0,30.6,23.8,14.8,0000.0,0005.56,0003.60,0003.38
2023-04-23 04:21:00,,0832.1,5.00,0.00,22.2,20.8,00.0,30.6,23.8,14.8,0000.0,0004.82,0003.56,0003.34
2023-04-23 04:22:00,,0832.1,5.00,0.00,22.2,20.8,00.0,30.6,23.8,14.8,0000.0,0004.78,0003.54,0003.31
2023-04-23 04:23:00,,0832.1,4.99,0.00,22.2,20.8,00.0,30.6,23.8,14.9,0000.0,0004.93,0003.57,0003.32
2023-04-23 04:24:00,,0832.1,4.99,0.00,22.2,20.8,00.0,30.6,23.8,14.9,0000.0,0005.31,0003.58,0003.32
2023-04-23 04:25:00,,0832.1,5.01,0.00,22.2,20.8,00.0,30.6,23.8,14.8,0000.0,0006.11,0003.58,0003.32
2023-04-23 04:26:00,,0832.1,5.01,0.00,22.2,20.8,00.0,30.6,23.8,14.8,0000.0,0006.31,0003.64,0003.35
2023-04-23 04:27:00,,0832.0,5.00,0.00,22.2,20.8,00.0,30.6,23.8,14.9,0000.0,0006.50,0003.70,0003.38
2023-04-23 04:28:00,,0832.0,4.99,0.00,22.2,20.8,00.0,30.6,23.8,14.8,0000.0,0006.62,0003.74,0003.41
2023-04-23 04:29:00,,0832.0,4.99,0.00,22.2,20.8,00.0,30.6,23.8,14.8,0000.0,0006.71,0003.77,0003.42
2023-04-23 04:30:00,,0832.0,5.01,0.00,22.2,20.8,00.0,30.6,23.8,14.8,0000.0,0006.81,0003.80,0003.45
2023-04-23 04:31:00,,0832.0,5.01,0.00,22.2,20.8,00.0,30.6,23.8,14.9,0000.0,0006.95,0003.87,0003.50
2023-04-23 04:32:00,,0832.0,5.00,0.00,22.2,20.7,00.0,30.6,23.8,14.8,0000.0,0007.03,0003.91,0003.53
2023-04-23 04:33:00,,0832.0,5.00,0.00,22.2,20.7,00.0,30.6,23.8,14.8,0000.0,0007.13,0003.96,0003.58
2023-04-23 04:34:00,,0832.0,5.00,0.00,22.2,20.7,00.0,30.6,23.8,14.8,0000.0,0007.08,0003.98,0003.61
2023-04-23 04:35:00,,0832.0,4.99,0.00,22.2,20.7,00.0,30.6,23.8,14.9,0000.0,0007.03,0003.98,0003.63
2023-04-23 04:36:00,,0832.0,5.00,0.00,22.2,20.7,00.0,30.6,23.7,14.9,0000.0,0006.21,0004.03,0003.66
2023-04-23 04:37:00,,0832.0,5.01,0.00,22.2,20.7,00.0,30.6,23.8,15.0,0000.0,0006.14,0004.05,0003.68
2023-04-23 04:38:00,,0832.0,5.01,0.00,22.2,20.7,00.0,30.6,23.8,15.1,0000.0,0006.17,0004.09,0003.73
2023-04-23 04:39:00,,0831.9,4.99,0.00,22.2,20.7,00.0,30.6,23.8,15.3,0000.0,0006.11,0004.10,0003.77
2023-04-23 04:40:00,,0832.0,4.99,0.00,22.2,20.7,00.0,30.6,23.8,15.3,0000.0,0006.14,0004.12,0003.77
2023-04-23 04:41:00,,0831.9,5.00,0.00,22.2,20.7,00.0,30.6,23.7,15.3,0000.0,0006.19,0004.13,0003.77
2023-04-23 04:42:00,,0831.9,5.00,0.00,22.2,20.8,00.0,30.6,23.8,15.5,0000.0,0006.12,0004.10,0003.77
2023-04-23 04:43:00,,0831.9,5.02,0.00,22.3,21.5,00.0,30.5,24.1,15.4,0000.0,0006.04,0004.07,0003.75
2023-04-23 04:44:00,,0832.0,5.00,0.00,22.4,22.5,00.0,30.5,24.5,15.3,0000.0,0005.94,0004.04,0003.74
2023-04-23 04:45:00,,0832.0,5.00,0.00,22.5,22.9,00.0,30.6,24.6,15.3,0000.0,0006.34,0004.04,0003.74
2023-04-23 04:46:00,,0831.9,5.00,0.00,22.6,22.7,00.0,30.6,24.5,15.3,0000.0,0006.39,0004.05,0003.75
2023-04-23 04:47:00,,0831.9,5.00,0.00,22.6,22.5,00.0,30.7,24.3,15.2,0000.0,0006.29,0004.04,0003.76
2023-04-23 04:48:00,,0831.9,5.00,0.00,22.6,22.2,00.0,30.7,24.3,15.2,0000.0,0006.29,0004.04,0003.76
2023-04-23 04:49:00,,0831.9,5.01,0.00,22.6,22.0,00.0,30.8,24.2,15.1,0000.0,0006.19,0003.99,0003.71
2023-04-23 04:50:00,,0831.9,4.99,0.00,22.6,21.7,00.0,30.8,24.2,15.3,0000.0,0006.26,0003.98,0003.68
2023-04-23 04:51:00,,0831.8,5.00,0.00,22.6,21.6,00.0,30.8,24.2,15.4,0000.0,0006.39,0004.02,0003.70
2023-04-23 04:52:00,,0831.8,5.01,0.00,22.5,21.4,00.0,30.8,24.1,15.4,0000.0,0006.38,0004.03,0003.71
2023-04-23 04:53:00,,0831.7,5.00,0.00,22.5,21.3,00.0,30.8,24.1,15.4,0000.0,0006.33,0004.02,0003.70
2023-04-23 04:54:00,,0832.1,5.00,0.00,22.5,21.2,00.0,30.8,24.1,15.4,0000.0,0006.52,0004.07,0003.72
2023-04-23 04:55:00,,0832.1,4.98,0.00,22.5,21.2,00.0,30.8,24.1,15.3,0000.0,0006.91,0004.09,0003.73
2023-04-23 04:56:00,,0832.1,5.00,0.00,22.5,21.1,00.0,30.8,24.1,15.3,0000.0,0006.52,0004.09,0003.72
2023-04-23 04:57:00,,0831.8,5.01,0.00,22.5,21.1,00.0,30.8,24.1,15.2,0000.0,0006.48,0004.10,0003.72
2023-04-23 04:58:00,,0831.7,5.01,0.00,22.5,21.0,00.0,30.8,24.0,15.2,0000.0,0006.39,0004.08,0003.71
2023-04-23 04:59:00,,0831.7,5.00,0.00,22.5,20.9,00.0,30.8,24.0,15.2,0000.0,0006.34,0004.05,0003.69
